DW5750 Weather Reports


Display with metric or nautical units.
time (UTC)temp
F
wind
direction
speed
MPH
gust
MPH
rain 1hr
in
rain 24hr
in
rain mn
in
humidity
%
barometer
mb
20260507150036 81 195 6.0 12.0 0.00 0.00 0.00 94 1011.1
20260507144525 81 209 5.0 11.0 0.00 0.00 0.00 96 1011.2
20260507143022 81 297 5.0 11.0 0.00 0.00 0.00 95 1011.1
20260507141521 81 241 6.0 12.0 0.00 0.00 0.00 96 1011.1
20260507140018 80 252 6.0 10.0 0.00 0.00 0.00 98 1011.0
20260507134516 79 216 4.0 8.0 0.00 0.00 0.00 98 1010.8
20260507133019 79 290 2.0 4.0 0.00 0.00 0.00 99 1010.7
20260507131516 78 316 0.0 0.0 0.00 0.00 0.00 100 1010.5
20260507130010 78 295 0.0 0.0 0.00 0.00 0.00 100 1010.2
20260507124508 76 298 2.0 5.0 0.00 0.00 0.00 100 1009.8
20260507123007 76 294 0.0 0.0 0.00 0.00 0.00 100 1009.7
20260507121506 76 295 0.0 0.0 0.00 0.00 0.00 100 1009.6
20260507120006 75 286 1.0 3.0 0.00 0.00 0.00 100 1009.4
20260507114504 75 302 0.0 3.0 0.00 0.00 0.00 100 1009.3
20260507113010 75 275 0.0 3.0 0.00 0.00 0.00 100 1009.4
20260507111503 76 305 3.0 4.0 0.00 0.00 0.00 100 1009.1
20260507110002 76 298 2.0 3.0 0.00 0.00 0.00 100 1009.0
20260507104604 76 311 2.0 4.0 0.00 0.00 0.00 100 1009.1
20260507103100 76 297 3.0 4.0 0.00 0.00 0.00 100 1008.8
20260507101559 76 313 1.0 4.0 0.00 0.00 0.00 100 1008.9
20260507100056 76 319 2.0 4.0 0.00 0.00 0.00 100 1008.9
20260507094600 76 308 2.0 3.0 0.00 0.00 0.00 100 1009.0
20260507093054 76 315 1.0 3.0 0.00 0.00 0.00 100 1009.0
20260507091553 76 301 2.0 3.0 0.00 0.00 0.00 100 1008.9
20260507090049 76 315 2.0 3.0 0.00 0.00 0.00 100 1009.2
20260507084547 76 308 2.0 3.0 0.00 0.00 0.00 100 1009.4
20260507083045 76 312 0.0 0.0 0.00 0.00 0.00 100 1009.6
20260507081544 76 294 0.0 0.0 0.00 0.00 0.00 100 1009.8
20260507080044 77 319 0.0 0.0 0.00 0.00 0.00 100 1010.1
20260507074546 77 317 1.0 3.0 0.00 0.00 0.00 100 1010.2
20260507073045 77 295 2.0 3.0 0.00 0.00 0.00 100 1010.5
20260507071537 76 311 2.0 3.0 0.00 0.00 0.00 100 1010.7
20260507070044 76 304 1.0 4.0 0.00 0.00 0.00 100 1010.8
20260507064535 77 276 0.0 0.0 0.00 0.00 0.00 100 1010.9
20260507063034 77 305 0.0 3.0 0.00 0.00 0.00 100 1011.0
20260507061529 77 311 2.0 4.0 0.00 0.00 0.00 100 1011.2
20260507060032 77 314 2.0 3.0 0.00 0.00 0.00 100 1011.3
20260507054525 77 319 1.0 3.0 0.00 0.00 0.00 99 1011.4
20260507053025 77 278 0.0 0.0 0.00 0.00 0.00 99 1011.3
20260507051527 78 293 2.0 5.0 0.00 0.00 0.00 99 1011.4
20260507050029 77 297 3.0 4.0 0.00 0.00 0.00 99 1011.6
20260507044522 78 294 2.0 4.0 0.00 0.00 0.00 99 1011.7
20260507043021 78 293 3.0 4.0 0.00 0.00 0.00 99 1011.6
20260507041521 78 314 0.0 3.0 0.00 0.00 0.00 98 1011.5
20260507040020 78 301 2.0 4.0 0.00 0.00 0.00 98 1011.5
20260507034521 78 293 0.0 3.0 0.00 0.00 0.00 98 1011.3
20260507033026 78 306 0.0 0.0 0.00 0.00 0.00 98 1011.2
20260507031524 78 305 0.0 4.0 0.00 0.00 0.00 98 1011.1
20260507030018 78 299 0.0 3.0 0.00 0.00 0.00 98 1010.9
20260507024515 78 315 2.0 4.0 0.00 0.02 0.00 98 1010.7
20260507023014 78 311 2.0 4.0 0.00 0.02 0.00 98 1010.6
20260507021514 78 292 1.0 4.0 0.00 0.02 0.00 98 1010.6
20260507020015 79 293 1.0 3.0 0.00 0.02 0.00 97 1010.5
20260507014512 79 309 0.0 2.0 0.00 0.02 0.00 97 1010.4
20260507013011 80 267 2.0 4.0 0.00 0.02 0.00 96 1010.3
20260507011525 80 235 1.0 6.0 0.00 0.02 0.00 96 1010.1
20260507010011 80 230 4.0 7.0 0.00 0.02 0.00 95 1009.9
20260507004509 80 204 2.0 6.0 0.00 0.02 0.00 95 1009.8
20260507003009 80 246 2.0 6.0 0.00 0.02 0.00 95 1009.6
20260507001513 80 258 3.0 7.0 0.00 0.02 0.00 95 1009.3
20260507000008 81 260 3.0 6.0 0.00 0.02 0.00 94 1009.2
20260506234507 81 247 3.0 8.0 0.00 0.02 0.00 94 1009.0
20260506233007 81 245 3.0 7.0 0.00 0.02 0.00 94 1008.8
20260506231505 82 238 4.0 9.0 0.00 0.02 0.00 93 1008.8
20260506230007 82 223 5.0 10.0 0.00 0.02 0.00 92 1008.8
20260506224504 82 244 4.0 7.0 0.00 0.02 0.00 91 1008.5
20260506223003 82 240 5.0 10.0 0.00 0.02 0.00 92 1008.7
20260506221601 83 240 4.0 9.0 0.00 0.02 0.00 90 1008.6
20260506220001 82 233 3.0 11.0 0.00 0.02 0.00 91 1008.8
20260506214600 82 295 3.0 10.0 0.00 0.02 0.00 90 1008.7
20260506213104 82 226 6.0 10.0 0.00 0.02 0.00 90 1008.6
20260506211558 82 245 7.0 12.0 0.00 0.02 0.00 90 1008.7
20260506210058 83 231 7.0 12.0 0.00 0.02 0.00 91 1008.8
20260506204553 83 208 7.0 15.0 0.00 0.02 0.00 90 1009.0
20260506203052 83 233 9.0 13.0 0.00 0.02 0.00 91 1009.1
20260506201552 83 256 8.0 13.0 0.00 0.02 0.00 91 1009.3
20260506200047 83 220 5.0 13.0 0.00 0.02 0.00 91 1009.6
20260506194547 83 187 8.0 13.0 0.00 0.02 0.00 90 1009.7
20260506193046 83 221 8.0 15.0 0.00 0.02 0.00 90 1010.0
20260506191545 83 259 8.0 13.0 0.00 0.02 0.00 91 1010.2
20260506190046 84 226 8.0 12.0 0.00 0.02 0.00 89 1010.3
20260506184549 83 217 5.0 13.0 0.00 0.02 0.00 91 1010.4
20260506183041 83 188 7.0 12.0 0.00 0.02 0.00 90 1010.7
20260506181540 83 238 7.0 12.0 0.00 0.02 0.00 90 1010.8
20260506180041 83 194 7.0 11.0 0.00 0.02 0.00 90 1011.1
20260506174538 83 219 4.0 10.0 0.00 0.02 0.00 90 1011.3
20260506173057 83 205 6.0 11.0 0.00 0.02 0.00 90 1011.4
20260506171536 83 177 7.0 11.0 0.00 0.02 0.00 90 1011.5
20260506170040 83 198 6.0 12.0 0.00 0.02 0.00 90 1011.8
20260506164535 83 191 6.0 11.0 0.00 0.02 0.00 90 1011.9
20260506163037 82 220 4.0 11.0 0.00 0.02 0.00 90 1011.9
20260506161532 82 219 6.0 9.0 0.00 0.02 0.00 90 1011.9
20260506160032 82 186 4.0 11.0 0.00 0.02 0.00 92 1011.8
20260506154529 82 263 4.0 10.0 0.00 0.02 0.00 92 1011.8
20260506153028 82 200 4.0 10.0 0.00 0.02 0.00 92 1011.8
20260506151528 82 222 6.0 9.0 0.00 0.02 0.00 92 1011.5